Time,TemperatureF,DewpointF,PressureIn,WindDirection,WindDirectionDegrees,WindSpeedMPH,WindSpeedGustMPH,Humidity,HourlyPrecipIn,Conditions,Clouds,dailyrainin,SoftwareType,DateUTC
2013-04-23 00:02:00,55.8,50.0,30.20,SSW,196,0.0,-999.0,81,-99.99,,,0.00,weatherlink.com 1.10,2013-04-23 05:02:00,
2013-04-23 00:17:00,56.1,50.0,30.20,SSW,196,0.0,-999.0,80,-99.99,,,0.00,weatherlink.com 1.10,2013-04-23 05:17:00,
2013-04-23 00:32:00,56.5,50.0,30.20,SE,144,4.0,-999.0,79,-99.99,,,0.00,weatherlink.com 1.10,2013-04-23 05:32:00,
2013-04-23 00:47:00,56.8,50.0,30.20,SE,144,0.0,-999.0,78,-99.99,,,0.00,weatherlink.com 1.10,2013-04-23 05:47:00,
2013-04-23 01:02:00,56.7,50.0,30.20,ESE,114,7.0,-999.0,78,-99.99,,,0.00,weatherlink.com 1.10,2013-04-23 06:02:00,
2013-04-23 01:17:00,56.7,50.0,30.20,SE,145,1.0,-999.0,77,-99.99,,,0.00,weatherlink.com 1.10,2013-04-23 06:17:00,
2013-04-23 01:32:00,56.4,50.0,30.20,SE,145,0.0,-999.0,78,-99.99,,,0.00,weatherlink.com 1.10,2013-04-23 06:32:00,
2013-04-23 01:47:00,55.9,50.0,30.20,SE,134,0.0,-999.0,79,-99.99,,,0.00,weatherlink.com 1.10,2013-04-23 06:47:00,
2013-04-23 02:02:00,55.3,49.0,30.20,SE,134,0.0,-999.0,80,-99.99,,,0.00,weatherlink.com 1.10,2013-04-23 07:02:00,
2013-04-23 02:17:00,54.8,49.0,30.20,SE,134,0.0,-999.0,81,-99.99,,,0.00,weatherlink.com 1.10,2013-04-23 07:17:00,
2013-04-23 02:32:00,54.7,49.0,30.20,SE,134,0.0,-999.0,80,-99.99,,,0.00,weatherlink.com 1.10,2013-04-23 07:32:00,
2013-04-23 02:47:00,54.3,49.0,30.20,SE,134,0.0,-999.0,81,-99.99,,,0.00,weatherlink.com 1.10,2013-04-23 07:47:00,
2013-04-23 03:02:00,54.0,48.0,30.21,SE,134,0.0,-999.0,81,-99.99,,,0.00,weatherlink.com 1.10,2013-04-23 08:02:00,
2013-04-23 03:17:00,54.1,48.0,30.20,SE,134,0.0,-999.0,80,-99.99,,,0.00,weatherlink.com 1.10,2013-04-23 08:17:00,
2013-04-23 03:32:00,54.1,48.0,30.20,SE,134,0.0,-999.0,80,-99.99,,,0.00,weatherlink.com 1.10,2013-04-23 08:32:00,
2013-04-23 03:47:00,53.6,48.0,30.20,SE,140,0.0,-999.0,80,-99.99,,,0.00,weatherlink.com 1.10,2013-04-23 08:47:00,
2013-04-23 04:02:00,53.2,47.0,30.20,ESE,105,0.0,-999.0,80,-99.99,,,0.00,weatherlink.com 1.10,2013-04-23 09:02:00,
2013-04-23 04:17:00,53.2,47.0,30.20,SE,126,0.0,-999.0,80,-99.99,,,0.00,weatherlink.com 1.10,2013-04-23 09:17:00,
2013-04-23 04:32:00,53.0,47.0,30.20,SE,126,0.0,-999.0,79,-99.99,,,0.00,weatherlink.com 1.10,2013-04-23 09:32:00,
2013-04-23 04:47:00,52.7,46.0,30.20,ESE,122,0.0,-999.0,78,-99.99,,,0.00,weatherlink.com 1.10,2013-04-23 09:47:00,
2013-04-23 05:02:00,52.6,46.0,30.21,ESE,122,0.0,-999.0,79,-99.99,,,0.00,weatherlink.com 1.10,2013-04-23 10:02:00,
2013-04-23 05:17:00,52.6,46.0,30.21,SE,140,0.0,-999.0,77,-99.99,,,0.00,weatherlink.com 1.10,2013-04-23 10:17:00,
2013-04-23 05:32:00,52.5,45.0,30.21,SSE,155,0.0,-999.0,77,-99.99,,,0.00,weatherlink.com 1.10,2013-04-23 10:32:00,
2013-04-23 05:47:00,52.4,45.0,30.21,SE,130,0.0,-999.0,75,-99.99,,,0.00,weatherlink.com 1.10,2013-04-23 10:47:00,
2013-04-23 06:02:00,52.7,44.0,30.21,SE,145,5.0,-999.0,72,-99.99,,,0.00,weatherlink.com 1.10,2013-04-23 11:02:00,
2013-04-23 06:17:00,52.8,44.0,30.21,ESE,114,4.0,-999.0,71,-99.99,,,0.00,weatherlink.com 1.10,2013-04-23 11:17:00,
2013-04-23 06:32:00,52.7,44.0,30.21,SE,142,0.0,-999.0,71,-99.99,,,0.00,weatherlink.com 1.10,2013-04-23 11:32:00,
2013-04-23 06:47:00,53.2,44.0,30.22,ESE,105,0.0,-999.0,70,-99.99,,,0.00,weatherlink.com 1.10,2013-04-23 11:47:00,
2013-04-23 07:02:00,53.5,43.0,30.22,SE,130,0.0,-999.0,67,-99.99,,,0.00,weatherlink.com 1.10,2013-04-23 12:02:00,
2013-04-23 07:17:00,54.4,43.0,30.21,SE,142,0.0,-999.0,66,-99.99,,,0.00,weatherlink.com 1.10,2013-04-23 12:17:00,
2013-04-23 07:32:00,55.9,42.0,30.22,SE,138,0.0,-999.0,61,-99.99,,,0.00,weatherlink.com 1.10,2013-04-23 12:32:00,
2013-04-23 07:47:00,57.0,42.0,30.23,SE,137,0.0,-999.0,58,-99.99,,,0.00,weatherlink.com 1.10,2013-04-23 12:47:00,
2013-04-23 08:02:00,57.8,42.0,30.23,SE,137,0.0,-999.0,56,-99.99,,,0.00,weatherlink.com 1.10,2013-04-23 13:02:00,
2013-04-23 08:17:00,58.7,40.0,30.24,SE,143,0.0,-999.0,51,-99.99,,,0.00,weatherlink.com 1.10,2013-04-23 13:17:00,
2013-04-23 08:32:00,59.7,40.0,30.24,SE,135,2.0,-999.0,49,-99.99,,,0.00,weatherlink.com 1.10,2013-04-23 13:32:00,
2013-04-23 08:47:00,59.5,40.0,30.24,SE,144,0.0,-999.0,49,-99.99,,,0.00,weatherlink.com 1.10,2013-04-23 13:47:00,
2013-04-23 09:02:00,59.5,40.0,30.24,SE,143,9.0,-999.0,48,-99.99,,,0.00,weatherlink.com 1.10,2013-04-23 14:02:00,
2013-04-23 09:17:00,60.1,40.0,30.24,SE,142,7.0,-999.0,48,-99.99,,,0.00,weatherlink.com 1.10,2013-04-23 14:17:00,
2013-04-23 09:32:00,62.6,41.0,30.24,SSE,152,0.0,-999.0,46,-99.99,,,0.00,weatherlink.com 1.10,2013-04-23 14:32:00,
2013-04-23 09:47:00,62.9,40.0,30.24,SE,139,6.0,-999.0,44,-99.99,,,0.00,weatherlink.com 1.10,2013-04-23 14:47:00,
2013-04-23 10:02:00,63.4,41.0,30.25,SW,221,6.0,-999.0,44,-99.99,,,0.00,weatherlink.com 1.10,2013-04-23 15:02:00,
2013-04-23 10:32:00,62.9,43.0,30.24,South,169,0.0,-999.0,48,-99.99,,,0.00,weatherlink.com 1.10,2013-04-23 15:32:00,
2013-04-23 10:47:00,64.4,44.0,30.24,SSW,197,2.0,-999.0,47,-99.99,,,0.00,weatherlink.com 1.10,2013-04-23 15:47:00,
2013-04-23 11:02:00,64.3,45.0,30.24,ESE,105,0.0,-999.0,50,-99.99,,,0.00,weatherlink.com 1.10,2013-04-23 16:02:00,
2013-04-23 11:17:00,64.5,46.0,30.23,SE,138,0.0,-999.0,51,-99.99,,,0.00,weatherlink.com 1.10,2013-04-23 16:17:00,
2013-04-23 11:32:00,66.5,47.0,30.23,South,175,0.0,-999.0,50,-99.99,,,0.00,weatherlink.com 1.10,2013-04-23 16:32:00,
2013-04-23 11:47:00,67.1,48.0,30.22,SSW,207,5.0,-999.0,50,-99.99,,,0.00,weatherlink.com 1.10,2013-04-23 16:47:00,
2013-04-23 12:02:00,67.8,47.0,30.21,SSE,154,0.0,-999.0,48,-99.99,,,0.00,weatherlink.com 1.10,2013-04-23 17:02:00,
2013-04-23 12:17:00,67.3,48.0,30.20,SSW,206,6.0,-999.0,50,-99.99,,,0.00,weatherlink.com 1.10,2013-04-23 17:17:00,
2013-04-23 12:32:00,67.9,49.0,30.20,South,186,5.0,-999.0,52,-99.99,,,0.00,weatherlink.com 1.10,2013-04-23 17:32:00,
2013-04-23 12:47:00,68.3,50.0,30.19,SSW,213,7.0,-999.0,52,-99.99,,,0.00,weatherlink.com 1.10,2013-04-23 17:47:00,
2013-04-23 13:02:00,69.5,51.0,30.19,SW,220,9.0,-999.0,53,-99.99,,,0.00,weatherlink.com 1.10,2013-04-23 18:02:00,
2013-04-23 13:17:00,69.2,50.0,30.19,South,178,0.0,-999.0,51,-99.99,,,0.00,weatherlink.com 1.10,2013-04-23 18:17:00,
2013-04-23 13:33:00,68.9,51.0,30.18,WSW,240,9.0,-999.0,54,-99.99,,,0.00,weatherlink.com 1.10,2013-04-23 18:33:00,
2013-04-23 13:48:00,70.4,52.0,30.17,WSW,243,7.0,-999.0,52,-99.99,,,0.00,weatherlink.com 1.10,2013-04-23 18:48:00,
2013-04-23 14:03:00,70.4,51.0,30.17,SE,136,0.0,-999.0,50,-99.99,,,0.00,weatherlink.com 1.10,2013-04-23 19:03:00,
2013-04-23 14:18:00,71.7,51.0,30.16,SW,235,6.0,-999.0,49,-99.99,,,0.00,weatherlink.com 1.10,2013-04-23 19:18:00,
2013-04-23 14:33:00,71.8,52.0,30.16,South,177,2.0,-999.0,50,-99.99,,,0.00,weatherlink.com 1.10,2013-04-23 19:33:00,
2013-04-23 14:48:00,71.3,53.0,30.15,South,180,0.0,-999.0,52,-99.99,,,0.00,weatherlink.com 1.10,2013-04-23 19:48:00,
2013-04-23 15:03:00,71.2,54.0,30.14,South,171,0.0,-999.0,54,-99.99,,,0.00,weatherlink.com 1.10,2013-04-23 20:03:00,
2013-04-23 15:18:00,72.2,53.0,30.14,SSW,210,0.0,-999.0,52,-99.99,,,0.00,weatherlink.com 1.10,2013-04-23 20:18:00,
2013-04-23 15:33:00,72.6,52.0,30.13,South,188,0.0,-999.0,49,-99.99,,,0.00,weatherlink.com 1.10,2013-04-23 20:33:00,
2013-04-23 15:48:00,72.6,53.0,30.12,SSW,192,0.0,-999.0,51,-99.99,,,0.00,weatherlink.com 1.10,2013-04-23 20:48:00,
2013-04-23 16:03:00,72.7,53.0,30.12,South,173,0.0,-999.0,51,-99.99,,,0.00,weatherlink.com 1.10,2013-04-23 21:03:00,
2013-04-23 16:18:00,73.2,55.0,30.11,South,180,6.0,-999.0,53,-99.99,,,0.00,weatherlink.com 1.10,2013-04-23 21:18:00,
2013-04-23 16:33:00,72.2,54.0,30.10,SW,216,0.0,-999.0,53,-99.99,,,0.00,weatherlink.com 1.10,2013-04-23 21:33:00,
2013-04-23 16:48:00,73.9,54.0,30.10,SSW,213,6.0,-999.0,50,-99.99,,,0.00,weatherlink.com 1.10,2013-04-23 21:48:00,
2013-04-23 17:03:00,73.2,53.0,30.09,SW,223,0.0,-999.0,50,-99.99,,,0.00,weatherlink.com 1.10,2013-04-23 22:03:00,
2013-04-23 17:18:00,74.0,54.0,30.09,SSW,198,4.0,-999.0,49,-99.99,,,0.00,weatherlink.com 1.10,2013-04-23 22:18:00,
2013-04-23 17:33:00,73.3,54.0,30.09,SSW,207,8.0,-999.0,51,-99.99,,,0.00,weatherlink.com 1.10,2013-04-23 22:33:00,
2013-04-23 17:48:00,72.5,53.0,30.09,SW,223,7.0,-999.0,51,-99.99,,,0.00,weatherlink.com 1.10,2013-04-23 22:48:00,
2013-04-23 18:03:00,72.9,54.0,30.09,SSW,195,3.0,-999.0,52,-99.99,,,0.00,weatherlink.com 1.10,2013-04-23 23:03:00,
2013-04-23 18:18:00,71.8,53.0,30.09,SW,219,1.0,-999.0,52,-99.99,,,0.00,weatherlink.com 1.10,2013-04-23 23:18:00,
2013-04-23 18:33:00,71.4,54.0,30.09,SSW,209,4.0,-999.0,55,-99.99,,,0.00,weatherlink.com 1.10,2013-04-23 23:33:00,
2013-04-23 18:48:00,71.1,53.0,30.09,South,188,2.0,-999.0,54,-99.99,,,0.00,weatherlink.com 1.10,2013-04-23 23:48:00,
2013-04-23 19:03:00,70.0,53.0,30.09,SSW,209,0.0,-999.0,56,-99.99,,,0.00,weatherlink.com 1.10,2013-04-24 00:03:00,
2013-04-23 19:18:00,69.1,54.0,30.09,South,180,0.0,-999.0,59,-99.99,,,0.00,weatherlink.com 1.10,2013-04-24 00:18:00,
2013-04-23 19:33:00,67.9,53.0,30.09,South,178,0.0,-999.0,60,-99.99,,,0.00,weatherlink.com 1.10,2013-04-24 00:33:00,
2013-04-23 19:48:00,66.7,54.0,30.09,South,178,0.0,-999.0,63,-99.99,,,0.00,weatherlink.com 1.10,2013-04-24 00:48:00,
2013-04-23 20:03:00,65.7,54.0,30.09,South,179,0.0,-999.0,66,-99.99,,,0.00,weatherlink.com 1.10,2013-04-24 01:03:00,
2013-04-23 20:18:00,65.0,54.0,30.10,SSW,192,0.0,-999.0,67,-99.99,,,0.00,weatherlink.com 1.10,2013-04-24 01:18:00,
2013-04-23 20:33:00,64.2,54.0,30.10,SSW,192,0.0,-999.0,69,-99.99,,,0.00,weatherlink.com 1.10,2013-04-24 01:33:00,
2013-04-23 20:49:00,63.5,54.0,30.11,SSW,192,0.0,-999.0,71,-99.99,,,0.00,weatherlink.com 1.10,2013-04-24 01:49:00,
2013-04-23 21:04:00,63.2,54.0,30.11,SSW,211,0.0,-999.0,72,-99.99,,,0.00,weatherlink.com 1.10,2013-04-24 02:04:00,
2013-04-23 21:19:00,63.2,54.0,30.11,South,171,0.0,-999.0,71,-99.99,,,0.00,weatherlink.com 1.10,2013-04-24 02:19:00,
2013-04-23 21:49:00,63.8,53.0,30.12,South,185,0.0,-999.0,69,-99.99,,,0.00,weatherlink.com 1.10,2013-04-24 02:49:00,
2013-04-23 22:19:00,62.4,53.0,30.12,South,170,0.0,-999.0,72,-99.99,,,0.00,weatherlink.com 1.10,2013-04-24 03:19:00,
2013-04-23 22:34:00,62.1,53.0,30.12,South,187,0.0,-999.0,73,-99.99,,,0.00,weatherlink.com 1.10,2013-04-24 03:34:00,
2013-04-23 22:49:00,61.6,53.0,30.12,South,188,0.0,-999.0,74,-99.99,,,0.00,weatherlink.com 1.10,2013-04-24 03:49:00,
2013-04-23 23:04:00,61.2,53.0,30.13,South,189,0.0,-999.0,75,-99.99,,,0.00,weatherlink.com 1.10,2013-04-24 04:04:00,
2013-04-23 23:19:00,61.0,53.0,30.13,South,189,0.0,-999.0,76,-99.99,,,0.00,weatherlink.com 1.10,2013-04-24 04:19:00,
2013-04-23 23:34:00,60.7,54.0,30.13,South,180,0.0,-999.0,78,-99.99,,,0.00,weatherlink.com 1.10,2013-04-24 04:34:00,
2013-04-23 23:49:00,61.0,54.0,30.13,South,180,0.0,-999.0,77,-99.99,,,0.00,weatherlink.com 1.10,2013-04-24 04:49:00,